Regional Weather Roundup
Issued by NWS

Home | Current Version | Previous Version | Text Only | Print | Product List | Glossary On
Versions: 1 2 3 4 5 6 7 8 9 10 11 12 13 14 15 16 17 18 19 20 21 22 23 24 25 26 27 28 29 30 31 32 33 34 35 36 37 38 39 40 41 42 43 44 45 46 47 48 49 50
000
ASUS46 KPQR 180110
RWROR

OREGON REGIONAL WEATHER ROUNDUP
NATIONAL WEATHER SERVICE PORTLAND OR
500 PM PST FRI NOV 17 2017

NOTE: "FAIR" INDICATES FEW OR NO CLOUDS BELOW 12,000 FEET WITH
NO SIGNIFICANT WEATHER AND/OR OBSTRUCTIONS TO VISIBILITY.

ORZ001>013-180200-
NORTHWEST OREGON


CITY           SKY/WX    TMP DP  RH WIND       PRES   REMARKS
ASTORIA        CLOUDY    48  42  80 SW6       30.25R
NEWPORT        MOCLDY    45  43  93 SE5       30.32S
PORTLAND       MOCLDY    48  42  80 S8        30.30R
VANCOUVER WA   CLOUDY    50  42  74 CALM      30.29R
SCAPPOOSE      MOCLDY    46  42  86 N3        30.28R
HILLSBORO      CLOUDY    48  42  80 SW5       30.28R
AURORA         MOCLDY    49  44  83 S7        30.30R
MCMINNVILLE    CLOUDY    47  45  93 CALM      30.30R
SALEM          MOCLDY    46  42  86 SE7       30.29R
CORVALLIS      CLOUDY    48  42  80 S7        30.32R
EUGENE         MOCLDY    45  41  86 S8        30.32R
$$

ORZ021-028-180200-
SOUTHWEST OREGON


CITY           SKY/WX    TMP DP  RH WIND       PRES   REMARKS
NORTH BEND     MOCLDY    50  45  83 CALM      30.34R
BROOKINGS      CLEAR     49  42  77 NW3       30.32R
ROSEBURG       MOCLDY    50  38  63 CALM      30.32R
SEXTON SUMMIT  PTCLDY    35  28  75 CALM      30.25R
GRANTS PASS    LGT RAIN  45  39  81 CALM      30.35R
MEDFORD        CLEAR     48  32  53 NW5       30.30R
$$

ORZ014>016-041-180200-
COLUMBIA GORGE


CITY           SKY/WX    TMP DP  RH WIND       PRES   REMARKS
TROUTDALE      CLOUDY    49  43  80 SW7       30.29R
HOOD RIVER     PTCLDY    43  37  81 CALM      30.24R
THE DALLES     PTCLDY    47  39  74 W8        30.23R
$$

ORZ029>031-041-044-049-050-061>064-502-503-505>511-180200-
EASTERN OREGON


CITY           SKY/WX    TMP DP  RH WIND       PRES   REMARKS
MADRAS         PTCLDY    41  41 100 SW13      30.24R
REDMOND        PTCLDY    35  23  61 N3        30.22R
BEND           CLEAR     37  27  65 S9        30.23R WCI  31
PRINEVILLE     PTCLDY    36  21  55 CALM      30.23R
KLAMATH FALLS  CLEAR     34  24  67 NW6       30.25R WCI  29
LAKEVIEW       FAIR      29  23  78 S5        30.24R WCI  24
HERMISTON      CLEAR     47  33  58 W18       30.20R
PENDLETON      CLEAR     41  32  70 W10       30.19R
JOHN DAY       PTCLDY    37  20  51 SW5       30.19R WCI  33
MEACHAM        CLOUDY    36  25  64 VRB5      30.15R WCI  32
LA GRANDE      CLOUDY    40  23  50 CALM      30.19R
BAKER CITY     CLOUDY    35  22  58 E5        30.18R WCI  31
BURNS          CLEAR     32  18  56 SW8       30.21R WCI  25
ROME             N/A     35  20  54 SW7       30.21R WCI  29
ONTARIO        CLEAR     42  24  49 NW9       30.22R
$$



USA.gov is the U.S. government's official web portal to all federal, state and local government web resources and services.